When you browse on this site, cookies collect data to enhance your experience and personalize the content and advertising you see.
Visit our Privacy Policy to learn more. By continuing to use the site, you agree to this use of cookies and data.
  • In Czech Republic
  • List of Countries
  • For 7 days
  • Water Temperature
  • Satellite Maps
  • Weather Map
  • Weather Widgets
  • user-avatar
    Login

    Hourly Weather Mission

    Today, 18 April, Thursday

    Time Temperature Precipitation Wind Pressure Humidity
    00:00 +26°C° 0 mm 9 mps 748 mmHg 78%
    01:00 +26°C° 0 mm 7 mps 748 mmHg 78%
    02:00 +26°C° 0 mm 6 mps 748 mmHg 77%
    03:00 +26°C° 0 mm 7 mps 749 mmHg 74%
    04:00 +26°C° 0 mm 7 mps 750 mmHg 71%
    05:00 +26°C° 0 mm 7 mps 752 mmHg 67%
    06:00 +27°C° 0 mm 8 mps 752 mmHg 54%
    07:00 +28°C° 0 mm 8 mps 752 mmHg 40%
    08:00 +31°C° 0 mm 8 mps 753 mmHg 26%
    09:00 +32°C° 0 mm 9 mps 753 mmHg 24%
    10:00 +33°C° 0 mm 10 mps 753 mmHg 22%
    11:00 +36°C° 0 mm 11 mps 753 mmHg 20%
    12:00 +36°C° 0 mm 11 mps 753 mmHg 21%
    13:00 +36°C° 0 mm 12 mps 753 mmHg 22%
    14:00 +36°C° 0 mm 12 mps 752 mmHg 23%
    15:00 +34°C° 0 mm 11 mps 753 mmHg 26%
    16:00 +33°C° 0 mm 10 mps 754 mmHg 29%
    17:00 +32°C° 0 mm 8 mps 754 mmHg 32%
    18:00 +29°C° 0 mm 8 mps 755 mmHg 34%
    19:00 +28°C° 0 mm 8 mps 757 mmHg 35%
    20:00 +27°C° 0 mm 7 mps 758 mmHg 37%
    21:00 +26°C° 0 mm 6 mps 758 mmHg 37%
    22:00 +23°C° 0 mm 6 mps 759 mmHg 37%
    23:00 +22°C° 0 mm 5 mps 759 mmHg 38%

    Tomorrow, 19 April, Friday

    Time Temperature Precipitation Wind Pressure Humidity
    00:00 +21°C° 0 mm 3 mps 759 mmHg 40%
    01:00 +20°C° 0 mm 2 mps 759 mmHg 43%
    02:00 +21°C° 0 mm 1 mps 759 mmHg 46%
    03:00 +20°C° 0 mm 1 mps 759 mmHg 48%
    04:00 +20°C° 0 mm 1 mps 759 mmHg 50%
    05:00 +17°C° 0 mm 0 mps 759 mmHg 52%
    06:00 +19°C° 0 mm 0 mps 760 mmHg 46%
    07:00 +23°C° 0 mm 1 mps 760 mmHg 40%
    08:00 +26°C° 0 mm 1 mps 761 mmHg 33%
    09:00 +27°C° 0 mm 1 mps 761 mmHg 30%
    10:00 +29°C° 0 mm 2 mps 761 mmHg 27%
    11:00 +30°C° 0 mm 2 mps 761 mmHg 23%
    12:00 +31°C° 0 mm 2 mps 760 mmHg 22%
    13:00 +32°C° 0 mm 2 mps 760 mmHg 22%
    14:00 +32°C° 0 mm 2 mps 759 mmHg 21%
    15:00 +32°C° 0 mm 2 mps 759 mmHg 22%
    16:00 +33°C° 0 mm 3 mps 759 mmHg 23%
    17:00 +31°C° 0 mm 3 mps 758 mmHg 24%
    18:00 +29°C° 0 mm 3 mps 759 mmHg 29%
    19:00 +27°C° 0 mm 4 mps 760 mmHg 34%
    20:00 +23°C° 0 mm 5 mps 760 mmHg 39%
    21:00 +23°C° 0 mm 4 mps 760 mmHg 41%
    22:00 +22°C° 0 mm 4 mps 760 mmHg 43%
    23:00 +21°C° 0 mm 3 mps 761 mmHg 46%

    Day after tomorrow, 20 April, Saturday

    Time Temperature Precipitation Wind Pressure Humidity
    00:00 +21°C° 0 mm 3 mps 760 mmHg 50%
    01:00 +20°C° 0 mm 3 mps 760 mmHg 54%
    02:00 +20°C° 0 mm 3 mps 760 mmHg 58%
    03:00 +20°C° 0 mm 3 mps 759 mmHg 61%
    04:00 +20°C° 0 mm 3 mps 759 mmHg 65%
    05:00 +19°C° 0 mm 3 mps 759 mmHg 68%
    06:00 +21°C° 0 mm 4 mps 760 mmHg 62%
    07:00 +23°C° 0 mm 5 mps 760 mmHg 57%
    08:00 +26°C° 0 mm 7 mps 760 mmHg 51%
    09:00 +28°C° 0 mm 7 mps 760 mmHg 46%
    10:00 +29°C° 0 mm 7 mps 760 mmHg 41%
    11:00 +32°C° 0 mm 8 mps 759 mmHg 36%
    12:00 +32°C° 0 mm 8 mps 758 mmHg 36%
    13:00 +33°C° 0 mm 8 mps 757 mmHg 36%
    14:00 +33°C° 0 mm 9 mps 756 mmHg 36%
    15:00 +32°C° 0 mm 9 mps 756 mmHg 39%
    16:00 +29°C° 0 mm 9 mps 756 mmHg 43%
    17:00 +28°C° 0 mm 9 mps 755 mmHg 46%
    18:00 +27°C° 0 mm 9 mps 756 mmHg 51%
    19:00 +24°C° 0 mm 9 mps 756 mmHg 56%
    20:00 +23°C° 0 mm 8 mps 756 mmHg 61%
    21:00 +23°C° 0 mm 8 mps 756 mmHg 61%
    22:00 +23°C° 0 mm 8 mps 756 mmHg 61%
    23:00 +23°C° 0 mm 8 mps 756 mmHg 61%

    21 April, Sunday

    Time Temperature Precipitation Wind Pressure Humidity
    00:00 +22°C° 0 mm 8 mps 755 mmHg 62%
    01:00 +22°C° 0 mm 8 mps 755 mmHg 64%
    02:00 +22°C° 0 mm 8 mps 754 mmHg 65%
    03:00 +22°C° 0 mm 8 mps 754 mmHg 66%
    04:00 +22°C° 0 mm 8 mps 754 mmHg 67%
    05:00 +22°C° 0 mm 9 mps 755 mmHg 67%
    06:00 +23°C° 0 mm 9 mps 755 mmHg 62%
    07:00 +26°C° 0 mm 10 mps 755 mmHg 57%
    08:00 +27°C° 0 mm 11 mps 756 mmHg 51%
    09:00 +29°C° 0 mm 11 mps 756 mmHg 48%
    10:00 +31°C° 0 mm 11 mps 756 mmHg 44%
    11:00 +33°C° 0 mm 11 mps 755 mmHg 40%
    12:00 +33°C° 0 mm 11 mps 755 mmHg 39%
    13:00 +33°C° 0 mm 11 mps 754 mmHg 39%
    14:00 +34°C° 0 mm 11 mps 754 mmHg 38%
    15:00 +32°C° 0 mm 10 mps 754 mmHg 42%
    16:00 +31°C° 0 mm 10 mps 754 mmHg 46%
    17:00 +29°C° 0 mm 10 mps 754 mmHg 50%
    18:00 +27°C° 0 mm 9 mps 754 mmHg 56%
    19:00 +26°C° 0 mm 9 mps 755 mmHg 63%
    20:00 +24°C° 0 mm 8 mps 756 mmHg 69%
    21:00 +24°C° 0 mm 8 mps 756 mmHg 71%
    22:00 +23°C° 0 mm 8 mps 755 mmHg 74%
    23:00 +23°C° 0 mm 8 mps 755 mmHg 77%

    22 April, Monday

    Time Temperature Precipitation Wind Pressure Humidity
    00:00 +23°C° 0 mm 8 mps 755 mmHg 79%
    01:00 +23°C° 0 mm 7 mps 754 mmHg 81%
    02:00 +22°C° 0 mm 7 mps 754 mmHg 83%
    03:00 +22°C° 0 mm 7 mps 754 mmHg 85%
    04:00 +22°C° 0 mm 7 mps 754 mmHg 88%
    05:00 +22°C° 0 mm 7 mps 754 mmHg 90%
    06:00 +24°C° 0 mm 7 mps 755 mmHg 81%
    07:00 +26°C° 0 mm 8 mps 755 mmHg 72%
    08:00 +28°C° 0 mm 9 mps 755 mmHg 63%
    09:00 +29°C° 0 mm 9 mps 755 mmHg 58%
    10:00 +32°C° 0 mm 9 mps 755 mmHg 53%
    11:00 +33°C° 0 mm 9 mps 755 mmHg 47%
    12:00 +33°C° 0 mm 9 mps 754 mmHg 49%
    13:00 +34°C° 0 mm 9 mps 753 mmHg 50%
    14:00 +34°C° 0 mm 9 mps 753 mmHg 51%
    15:00 +33°C° 0 mm 9 mps 753 mmHg 54%
    16:00 +32°C° 0 mm 9 mps 753 mmHg 57%
    17:00 +31°C° 0 mm 9 mps 753 mmHg 60%
    18:00 +29°C° 0 mm 9 mps 754 mmHg 65%
    19:00 +28°C° 0 mm 9 mps 754 mmHg 70%
    20:00 +27°C° 0 mm 9 mps 755 mmHg 75%
    21:00 +27°C° 0 mm 8 mps 755 mmHg 78%
    22:00 +26°C° 0 mm 8 mps 755 mmHg 80%
    23:00 +26°C° 0 mm 8 mps 755 mmHg 83%

    23 April, Tuesday

    Time Temperature Precipitation Wind Pressure Humidity
    00:00 +26°C° 0 mm 8 mps 754 mmHg 83%
    01:00 +24°C° 0 mm 7 mps 754 mmHg 84%
    02:00 +24°C° 0 mm 7 mps 754 mmHg 85%
    03:00 +24°C° 0 mm 6 mps 754 mmHg 86%
    04:00 +23°C° 0 mm 6 mps 754 mmHg 88%
    05:00 +23°C° 0 mm 5 mps 754 mmHg 89%
    06:00 +24°C° 0 mm 6 mps 755 mmHg 81%
    07:00 +27°C° 0 mm 7 mps 755 mmHg 73%
    08:00 +28°C° 0 mm 9 mps 755 mmHg 65%
    09:00 +31°C° 0 mm 9 mps 755 mmHg 61%
    10:00 +32°C° 0 mm 9 mps 755 mmHg 56%
    11:00 +34°C° 0 mm 9 mps 755 mmHg 51%
    12:00 +34°C° 0 mm 9 mps 755 mmHg 51%
    13:00 +34°C° 0 mm 9 mps 754 mmHg 50%
    14:00 +35°C° 0 mm 9 mps 754 mmHg 49%
    15:00 +34°C° 0 mm 8 mps 754 mmHg 54%
    16:00 +32°C° 0 mm 8 mps 754 mmHg 58%
    17:00 +31°C° 0 mm 8 mps 754 mmHg 62%
    18:00 +31°C° 0 mm 8 mps 755 mmHg 67%
    19:00 +29°C° 0 mm 8 mps 755 mmHg 73%
    20:00 +28°C° 0 mm 9 mps 756 mmHg 79%
    21:00 +28°C° 0 mm 8 mps 756 mmHg 79%
    22:00 +28°C° 0 mm 8 mps 756 mmHg 79%
    23:00 +28°C° 0 mm 8 mps 756 mmHg 79%
    Show more